Other Public Products
Issued by NWS Charleston, SC

Current Version | Previous Version | Text Only | Print | Product List | Glossary Off
Versions: 1 2 3 4 5 6 7 8 9 10 11 12 13 14 15 16 17 18 19 20 21 22 23 24 25 26 27 28 29 30 31 32 33 34 35 36 37 38 39 40 41 42 43 44 45 46 47 48 49 50

843
FPUS82 KCHS 200327
OPUCHS

TEST...KCHS/KSAV Gateway Observations...TEST
National Weather Service Charleston SC
1000 PM EST SUN FEB 19 2017

NOTE: "fair" indicates few or no clouds below 12,000 feet with no
significant weather and/or obstructions to visibility.

SCZ050-WAZ558-NCZ071-TXZ119-213-PAZ071-DCZ001-FLZ074-172-MI076-
NYZ176-178-MAZ016-IL014-TNZ027-NJZ106-GAZ044-MD014-200400-
...Gateway Observations for Charleston International...

CITY           SKY/WX    TMP DP  RH WIND       PRES   REMARKS
Chas Airport   CLEAR     58  48  69 NW5       30.08R
Seattle        CLOUDY    46  38  73 S13       29.56R
Charlotte      CLEAR     57  41  55 N7        30.12R
Dallas DFW     MOCLDY    71  66  84 SE16      29.81S
Dallas Love    MOCLDY    71  65  81 SE16      29.82F
Philladelphia  CLEAR     59  33  37 W9        29.97R
Wash National  PTCLDY    59  42  53 NW12      30.04R
Baltimore      CLEAR     53  41  63 W9        30.01R
Miami          PTCLDY    73  68  84 N3        30.08R
Detroit        CLOUDY    47  33  58 E6        30.15R
Newark         CLEAR     56  31  38 N14       29.96R
Laguardia      CLEAR     57  30  35 NW6       29.96R
J F K          CLEAR     56  32  40 N14       29.97R
Boston Logan   CLOUDY    51  32  48 W10       29.88R
Ft. Lauderdale MOCLDY    74  68  81 NE5       30.07R
Chicago O`Hare MOCLDY    45  30  55 SE7       30.08R
Chicago Midway CLOUDY    50  30  46 E3        30.09R
Houston Bush   LGT RAIN  70  68  93 SE14      29.89F FOG
Houston Hobby  CLOUDY    72  69  90 SE12      29.89F FOG
Nashville      CLEAR     56  48  74 SE3       30.13R
Atlanta        CLEAR     57  46  66 NW7       30.13R

$$

GAZ044-118-TXZ119-213-NCZ071-DCZ001-MDZ014-506-PAZ021-071-NJZ106-
NYZ176-178-MAZ106-OHZ011-021-055-MIZ076-KYZ091-ILZ014-INZ047-
MNZ060-200400-
...Gateway Observations for Savannah International...

CITY           SKY/WX    TMP DP  RH WIND       PRES   REMARKS
Savannah Arpt  CLEAR     57  49  74 CALM      30.09R
Atlanta        CLEAR     57  46  66 NW7       30.13R
Charlotte      CLEAR     57  41  55 N7        30.12R
Dallas DFW     MOCLDY    71  66  84 SE16      29.81S
Houston Bush   LGT RAIN  70  68  93 SE14      29.89F FOG
Wash National  PTCLDY    59  42  53 NW12      30.04R
Wash Dulles    CLEAR     55  41  59 NW12      30.05R
Baltimore      CLEAR     53  41  63 W9        30.01R
Philadelphia   CLEAR     59  33  37 W9        29.97R
Newark         CLEAR     56  31  38 N14       29.96R
Laguardia      CLEAR     57  30  35 NW6       29.96R
J F K          CLEAR     56  32  40 N14       29.97R
Boston         CLOUDY    51  32  48 W10       29.88R
Pittsburg      PTCLDY    50  38  63 W5        30.12R
Akron          CLEAR     50  33  52 W5        30.13R
Cleveland      PTCLDY    46  34  62 CALM      30.16R
Cincinnati     CLEAR     46  45  96 S5        30.16R FOG
Columbus       CLEAR     42  42  99 S5        30.15S FOG
Detroit        CLOUDY    47  33  58 E6        30.15R
Chicago O`Hare MOCLDY    45  30  55 SE7       30.08R
Minneapolis    CLOUDY    51  38  60 SE13G21   29.88S
Indianapolis   PTCLDY    50  45  83 SE7       30.13R

$$




USA.gov is the U.S. government's official web portal to all federal, state and local government web resources and services.